STARLINK-37744, 69347

Orbit data source: Space-Track

STARLINK-37744, 69347 is a payload satellite owned by SpaceX/Seattle (US) in SSO that was launched on Wed, 03 Jun 2026 UTC via an FALCON 9 launch vehicle from the Air Force Western Test Range (AFWTR). Payload-class satellites include a variety of spacecraft equipped with specific instruments for various scientific and technological missions. These include communications satellites like Starlink; space stations such as the ISS; scientific satellites like the Hubble; Earth observation satellites from companies like Planet Labs, Umbra, and HawkEye 360; GPS; miniature CubeSats for education and research; and military/defense satellites.

Loading next visibility...
Identifier
69347, 2026-122U
Orbit
SSO
Country
Flag of USUS
Related business
Manufacturer
SpaceX/Seattle
Mission
Operational spacecraft
Bus & Motor
STARLINK V2MO, Unknown motor
Mass
575 kg wet, ~530 kg dry
Launch date (UTC)
2026-06-03 (2 weeks ago)
Launch vehicle
FALCON 9
Launch site
Air Force Western Test Range (AFWTR)
Object type
Payload
Rocket body
Debris
Shape & HBR
Unknown
Radar Cross Section
RCS unknown

Expand to show TLE details & history
Last TLE update: 10 hours ago

TLE from 10 hours ago
0 STARLINK-37744
1 69347U 26122U   26171.41668980 -.03058179  00000-0 -57546-1 0  9994
2 69347  97.2847 200.9990 0001620  38.4525 341.8849 15.52698367  3870
Epoch: 2026-06-20T10:00Z
TLE epoch observation values (Epoch: 2026-06-20T10:00:01.998Z)
Latitude
20.16461°
Longitude
139.68343°
Altitude
410.522 km
Speed
7.667 km/s
True Right ascension
13h 13m 17s
True Declination
20° 02' 52"
Sunlit
Object was in daylight at epoch
Visualization orbit readout
Latitude
Unknown
Longitude
Unknown
Altitude
Unknown
Speed
Unknown
Apparent Right ascension
Unknown
Apparent Declination
Unknown
Sunlit
N/A
Visualization observer readout
Local Sidereal Time
07:12:34
Azimuth
Unknown
Elevation
Unknown
Doppler factor
Unknown
Orbital elements
Apogee altitude
406.868 km
Perigee altitude
404.67 km
Semi-major axis
6,783.906 km
Eccentricity
0.00016
Inclination
97.2847°
RAAN
200.999°
Arg. of periapsis
38.4525°
True anomaly
341.87913°
Mean anomaly
341.8849°
Eccentric anomaly
341.88201°
Mean motion
3.8844 °/min
Orbital period
92.68 mins
BSTAR
-0.057546
Loading maneuver chart data...
Computing Atmospheric mass density...
Loading historical data...
Loading historical data...
Loading historical data...
Loading historical data...
Loading historical data...
Loading historical data...
Loading historical data...

Documentation

Showing up to 5 results
|